Location: Carrières
(48.9495°N, 2.0407°E)
Time: 20:06:12
(UTC+00:00)

Transit 2A Rocket - Pass Details

Date: 24 April 2024
Orbit: 585 x 908 km, 66.7° (Epoch: 18 May)

Event Time Altitude Azimuth Distance (km) Brightness Sun altitude
Rises 17:16:31 0° 326° (NW) 3,234 8.8 15.4°
Reaches altitude 10° 17:19:12 10° 338° (NNW) 2,361 7.9 14.9°
Maximum altitude 17:23:51 28° 37° (NE) 1,532 6.4 14.2°
Drops below altitude 10° 17:28:48 10° 95° (E) 2,517 7.1 13.4°
Sets 17:31:44 0° 106° (ESE) 3,487 7.8 12.9°
